CZ-6A DEB, 54358

Orbit data source: Space-Track

CZ-6A DEB, 54358 is space debris in SSO originally from a launch on Fri, 11 Nov 2022 UTC launched from the Taiyaun Space Center, China (TSC). Debris objects in space refer to the collection of defunct objects orbiting the Earth. Examples of debris include non-operational satellites, rocket bodies, and fragments generated from explosions, collisions, or faulty payload assembly.

Loading next visibility...
Identifier
54358, 2022-151DD
Orbit
SSO
Country
Flag of CNCN / PRC
Related business
Manufacturer
SAST
Mission
Spacecraft
Bus & Motor
Unknown
Mass
Unknown
Launch date (UTC)
2022-11-11 (3 years ago)
Launch vehicle
Unknown
Launch site
Taiyaun Space Center, China (TSC)
Object type
Payload
Rocket body
Debris
Shape & HBR
Unknown shape, 0.1 m
Radar Cross Section
Small (<0.1 m²)

Expand to show TLE details & history
Last TLE update: 10 hours ago

TLE from 10 hours ago
0 CZ-6A DEB
1 54358U 22151DD  26130.19472310  .00006905  00000-0  70325-3 0  9995
2 54358  98.4517 202.8641 0082393 253.5808 105.6339 14.88559947186316
Epoch: 2026-05-10T04:40Z
TLE epoch observation values (Epoch: 2026-05-10T04:40:24.075Z)
Latitude
-0.00002°
Longitude
-95.23751°
Altitude
621.391 km
Speed
7.539 km/s
True Right ascension
13h 31m 27s
True Declination
0° 00' 00"
Sunlit
Object was in full shadow at epoch
Visualization orbit readout
Latitude
Unknown
Longitude
Unknown
Altitude
Unknown
Speed
Unknown
Apparent Right ascension
Unknown
Apparent Declination
Unknown
Sunlit
N/A
Visualization observer readout
Local Sidereal Time
22:57:56
Azimuth
Unknown
Elevation
Unknown
Doppler factor
Unknown
Orbital elements
Apogee altitude
656.98 km
Perigee altitude
541.998 km
Semi-major axis
6,977.626 km
Eccentricity
0.00824
Inclination
98.4517°
RAAN
202.8641°
Arg. of periapsis
253.5808°
True anomaly
106.54057°
Mean anomaly
105.6339°
Eccentric anomaly
106.08749°
Mean motion
3.72376 °/min
Orbital period
96.68 mins
BSTAR
0.00070325
Loading maneuver chart data...
Computing Atmospheric mass density...

Documentation

Showing up to 5 results
|